[[{"header":{"parameterUnit":"m.s-1","parameterCategory":1,"la1":30.2991,"la2":30.254,"lo1":-89.0895,"lo2":-89.0444,"dy":0.0017,"dx":0.0017,"nx":28,"ny":28,"refTime":"2023-09-20T09:00:00:Z","depth":0,"parameterNumber":2,"parameterNumberName":"U-component_of_WINDS"},"data":[0,0,0,0,0,0,0,0,0,0,0,0,0,0,0,0,0,0,0,0,0,0,0,0,0,0,0,0,0,0,0,0,0,0,0,0,0,0,0,0,0,0,0,0,0,0,0,0,0,0,0,0,0,0,0,0,0,0,-4.3114,-4.3115,0,-4.3192,-4.3192,-4.3193,-4.3068,-4.3063,-4.3059,-4.3055,-4.3139,-4.3145,-4.3151,0,0,0,0,0,0,0,0,0,0,0,0,0,-4.2863,-4.2868,-4.3114,-4.3115,-4.3116,-4.3191,-4.3192,-4.3194,-4.3068,-4.3063,-4.3058,-4.3053,-4.3137,-4.3144,-4.3152,0,0,0,0,0,0,0,0,0,0,0,0,0,-4.296,-4.287,-4.3114,-4.3062,-4.3058,-4.3191,-4.3193,-4.3194,-4.3069,-4.3063,-4.3056,-4.305,-4.3135,-4.3144,-4.3153,-4.3341,0,0,-4.3182,-4.3186,0,0,0,0,0,0,0,0,-4.2954,-4.2969,-4.3069,-4.3066,-4.3062,-4.3113,-4.3135,-4.3243,-4.3071,-4.3065,-4.3055,-4.3047,-4.3136,-4.3145,-4.3174,-4.3345,-4.3349,-4.3183,-4.3188,-4.3192,-4.3195,0,0,0,0,0,0,0,-4.2948,-4.2965,-4.3145,-4.3071,-4.3066,-4.3037,-4.3044,-4.3155,-4.3136,-4.3065,-4.3056,-4.3067,-4.3133,-4.3165,-4.3175,-4.335,-4.3182,-4.3191,-4.3197,-4.32,-4.3683,-4.369,0,0,0,0,0,0,-4.2947,-4.296,-4.3142,-4.3147,-4.2991,-4.3047,-4.3054,-4.3103,-4.3135,-4.3133,-4.3073,-4.3061,-4.3152,-4.3164,-4.3177,-4.3402,-4.3192,-4.3201,-4.3207,-4.3676,-4.3685,-4.3693,0,0,0,0,0,0,-4.2942,-4.2964,-4.3139,-4.3051,-4.3071,-4.3058,-4.3114,-4.3108,-4.314,-4.314,-4.3137,-4.3109,-4.3148,-4.3164,-4.3302,-4.3403,-4.3205,-4.3214,-4.3668,-4.3679,-4.3689,-4.3852,0,0,0,0,0,0,-4.2935,-4.2963,-4.3033,-4.3054,-4.3076,-4.3261,-4.312,-4.3115,-4.3156,-4.3142,-4.3173,-4.3172,-4.3144,-4.3289,-4.3311,-4.3413,-4.3221,-4.3659,-4.3673,-4.3685,-4.3838,-4.3867,-4.3893,0,0,0,0,0,-4.2927,-4.3076,-4.3037,-4.306,-4.3163,-4.3267,-4.328,-4.3243,-4.3165,-4.3236,-4.3237,-4.3171,-4.3388,-4.3304,-4.3328,-4.3434,-4.3652,-4.3669,-4.3684,-4.3826,-4.3862,-4.3892,0,0,0,0,0,0,-4.3068,-4.3078,-4.3035,-4.3195,-4.3231,-4.3245,-4.3334,-4.3282,-4.3342,-4.3326,-4.328,-4.3288,-4.3437,-4.3448,-4.3354,-4.362,-4.3507,-4.3529,-4.3607,-4.3641,-4.3668,-4.3663,-4.3229,0,0,0,0,0,-4.3118,-4.32,-4.3204,-4.3345,-4.3365,-4.3347,-4.3391,-4.3359,-4.3396,-4.3411,-4.3421,-4.346,-4.3537,-4.3589,-4.366,-4.3839,-4.3846,-4.3924,-4.3951,-4.3974,-4.3994,-4.4093,-4.4129,-4.3746,-4.3746,-4.3745,0,0,-4.3222,-4.3237,-4.3291,-4.3374,-4.3398,-4.3487,-4.3361,-4.3458,-4.3524,-4.3426,-4.3557,-4.3566,-4.3607,-4.3767,-4.3838,-4.3782,-4.4102,-4.3995,-4.4012,-4.402,-4.4114,-4.415,-4.4182,-4.3757,-4.3755,-4.3753,0,0,-4.3456,-4.3475,-4.3596,-4.3623,-4.3661,-4.3648,-4.3678,-4.3701,-4.3703,-4.3834,-4.3763,-4.3841,-4.3974,-4.4008,-4.4042,-4.4293,-4.4236,-4.4317,-4.4461,-4.4558,-4.4588,-4.4615,-4.4708,-4.4741,-4.4337,-4.4337,-4.4337,0,-4.3581,-4.3709,-4.3665,-4.3769,-4.3809,-4.3723,-4.3847,-4.3876,-4.3936,-4.3967,-4.3903,-4.407,-4.4091,-4.426,-4.4321,-4.4351,-4.4386,-4.4314,-4.4587,-4.4613,-4.4638,-4.4726,-4.476,-4.4347,-4.4346,-4.4345,-4.4344,0,-4.3862,-4.3952,-4.4046,-4.4106,-4.4156,-4.427,-4.4245,-4.4302,-4.4267,-4.4262,-4.4398,-4.4421,-4.4496,-4.4534,-4.45,-4.4699,-4.4663,-4.4594,-4.4481,-4.4685,-4.4767,-4.48,-4.4361,-4.4357,-4.4354,-4.4352,0,0,-4.4187,-4.4223,-4.4258,-4.4286,-4.4323,-4.4393,-4.4504,-4.4577,-4.4629,-4.4674,-4.4768,-4.4884,-4.4821,-4.486,-4.483,-4.4915,-4.5117,-4.4836,-4.4836,-4.489,-4.5341,-4.5395,-4.5434,-4.5079,-4.5085,-4.509,-4.5339,0,-4.4423,-4.4613,-4.4578,-4.4764,-4.4849,-4.477,-4.4868,-4.4903,-4.4902,-4.4975,-4.4974,-4.5059,-4.4967,-4.4991,-4.5072,-4.5075,-4.5207,-4.5056,-4.5169,-4.5174,-4.5164,-4.5476,-4.5533,-4.5767,-4.537,-4.5375,-4.5379,0,-4.4723,-4.4779,-4.4974,-4.5001,-4.5035,-4.5123,-4.5189,-4.5259,-4.5299,-4.5292,-4.5338,-4.5293,-4.5407,-4.5291,-4.5449,-4.5347,-4.5391,-4.5401,-4.5409,-4.542,-4.529,-4.5499,-4.584,-4.5876,-4.5429,-4.5425,-4.5421,0,-4.4945,-4.5069,-4.5203,-4.5228,-4.5262,-4.5326,-4.5344,-4.5376,-4.5424,-4.5482,-4.5513,-4.5584,-4.5624,-4.5682,-4.5659,-4.5575,-4.5823,-4.5704,-4.5824,-4.5825,-4.5881,-4.5878,-4.6237,-4.5906,-4.5905,-4.5904,-4.5904,0,-4.5213,-4.5336,-4.5303,-4.5386,-4.5522,-4.5482,-4.5619,-4.5627,-4.5658,-4.5743,-4.5679,-4.576,-4.5723,-4.5803,-4.5786,-4.5922,-4.594,-4.594,-4.5935,-4.5947,-4.5948,-4.5977,-4.5962,-4.5914,-4.5912,-4.591,-4.5908,0,-4.5484,-4.5466,-4.5607,-4.5628,-4.5636,-4.5737,-4.5755,-4.5834,-4.5829,-4.5937,-4.596,-4.5953,-4.6044,-4.6026,-4.6126,-4.6115,-4.6286,-4.6259,-4.6273,-4.6268,-4.639,-4.638,-4.6782,-4.6834,-4.6467,-4.647,-4.6473,0,-4.5657,-4.575,-4.5781,-4.5833,-4.5855,-4.5939,-4.5987,-4.5952,-4.6006,-4.6059,-4.6133,-4.6218,-4.6284,-4.6434,-4.6439,-4.6517,-4.6493,-4.6628,-4.6504,-4.6515,-4.6499,-4.6495,-4.6506,-4.6654,-4.6658,-4.6661,-4.6664,0,-4.5968,-4.5955,-4.6026,-4.6096,-4.6155,-4.6208,-4.6256,-4.6302,-4.6272,-4.6336,-4.6427,-4.6479,-4.6582,-4.6669,-4.6742,-4.6762,-4.6711,-4.6703,-4.6736,-4.6751,-4.6756,-4.6759,-4.6343,-4.6694,-4.6691,-4.6689,-4.6688,-4.6686,-4.6197,-4.6277,-4.6313,-4.6395,-4.6427,-4.6474,-4.655,-4.6554,-4.663,-4.671,-4.6685,-4.6791,-4.6832,-4.6924,-4.6953,-4.7037,-4.6987,-4.7033,-4.7045,-4.7058,-4.7074,-4.6741,-4.705,-4.7049,-4.7048,-4.7047,-4.7047,0,-4.6506,-4.6526,-4.6602,-4.6671,-4.6737,-4.668,-4.6731,-4.6791,-4.6884,-4.6925,-4.6992,-4.71,-4.7185,-4.7197,-4.7278,-4.7344,-4.7323,-4.7367,-4.7363,-4.7369,-4.7113,-4.7078,-4.7383,-4.7383,-4.7383,-4.7383,-4.7383,-4.7383,-4.6675,-4.681,-4.6802,-4.6953,-4.6971,-4.7074,-4.7108,-4.7152,-4.7185,-4.7308,-4.7378,-4.7385,-4.7416,-4.75,-4.7576,-4.7578,-4.7612,-4.7666,-4.766,-4.742,-4.7387,-4.7355,-4.7322,-4.7673,-4.7674,-4.7909,-4.7912,-4.7913]},{"header":{"parameterUnit":"m.s-1","parameterCategory":1,"la1":30.2991,"la2":30.254,"lo1":-89.0895,"lo2":-89.0444,"dy":0.0017,"dx":0.0017,"nx":28,"ny":28,"refTime":"2023-09-20T09:00:00:Z","depth":0,"parameterNumber":3,"parameterNumberName":"V-component_of_WINDS"},"data":[0,0,0,0,0,0,0,0,0,0,0,0,0,0,0,0,0,0,0,0,0,0,0,0,0,0,0,0,0,0,0,0,0,0,0,0,0,0,0,0,0,0,0,0,0,0,0,0,0,0,0,0,0,0,0,0,0,0,-0.4653,-0.4654,0,-0.469,-0.469,-0.469,-0.4654,-0.4653,-0.4651,-0.465,-0.4688,-0.469,-0.4692,0,0,0,0,0,0,0,0,0,0,0,0,0,-0.4552,-0.4554,-0.4653,-0.4654,-0.4654,-0.469,-0.469,-0.4691,-0.4654,-0.4653,-0.4651,-0.4649,-0.4687,-0.469,-0.4693,0,0,0,0,0,0,0,0,0,0,0,0,0,-0.4593,-0.4554,-0.4653,-0.464,-0.464,-0.4689,-0.469,-0.4691,-0.4655,-0.4653,-0.4651,-0.4649,-0.4686,-0.469,-0.4693,-0.4757,0,0,-0.4704,-0.4705,0,0,0,0,0,0,0,0,-0.459,-0.4597,-0.4642,-0.4641,-0.4641,-0.4665,-0.4668,-0.4713,-0.4655,-0.4649,-0.465,-0.4647,-0.4682,-0.4686,-0.4697,-0.4759,-0.4761,-0.4704,-0.4706,-0.4708,-0.4709,0,0,0,0,0,0,0,-0.4588,-0.4595,-0.4668,-0.4642,-0.4642,-0.4633,-0.4636,-0.4676,-0.4677,-0.4649,-0.4647,-0.4652,-0.4681,-0.4694,-0.4698,-0.4761,-0.4704,-0.4707,-0.4709,-0.4711,-0.4878,-0.488,0,0,0,0,0,0,-0.4586,-0.4593,-0.4666,-0.4669,-0.461,-0.4636,-0.464,-0.4659,-0.4677,-0.4677,-0.4653,-0.465,-0.4689,-0.4694,-0.4699,-0.4777,-0.4708,-0.4711,-0.4713,-0.4876,-0.4878,-0.4881,0,0,0,0,0,0,-0.4584,-0.4593,-0.4665,-0.463,-0.4638,-0.464,-0.4662,-0.4661,-0.4674,-0.468,-0.468,-0.4667,-0.4688,-0.4694,-0.4743,-0.4777,-0.4712,-0.4716,-0.4873,-0.4876,-0.488,-0.4932,0,0,0,0,0,0,-0.4581,-0.4593,-0.4618,-0.4631,-0.464,-0.4709,-0.4664,-0.4664,-0.468,-0.4676,-0.4692,-0.4692,-0.4686,-0.4738,-0.4747,-0.4781,-0.4718,-0.487,-0.4874,-0.4879,-0.4927,-0.4937,-0.4945,0,0,0,0,0,-0.4578,-0.4631,-0.4619,-0.4628,-0.4672,-0.4711,-0.4717,-0.4709,-0.4683,-0.4708,-0.4711,-0.4692,-0.4771,-0.4743,-0.4753,-0.4789,-0.4868,-0.4873,-0.4878,-0.4923,-0.4935,-0.4945,0,0,0,0,0,0,-0.4622,-0.4633,-0.462,-0.4678,-0.4694,-0.4705,-0.4736,-0.4721,-0.4745,-0.474,-0.4728,-0.4732,-0.4784,-0.4791,-0.4759,-0.4852,-0.4815,-0.4823,-0.4846,-0.4858,-0.4866,-0.4865,-0.4721,0,0,0,0,0,-0.4639,-0.467,-0.4677,-0.4728,-0.4737,-0.4735,-0.4752,-0.4744,-0.476,-0.4767,-0.4774,-0.479,-0.4818,-0.4838,-0.4864,-0.4926,-0.493,-0.4956,-0.4964,-0.4972,-0.4979,-0.5013,-0.5025,-0.4898,-0.4898,-0.4898,0,0,-0.4674,-0.4683,-0.4703,-0.4737,-0.4749,-0.4781,-0.4741,-0.4777,-0.4802,-0.4772,-0.482,-0.4825,-0.4842,-0.4898,-0.4923,-0.4905,-0.5014,-0.4978,-0.4984,-0.4988,-0.502,-0.5032,-0.5042,-0.4902,-0.4901,-0.4901,0,0,-0.4754,-0.4764,-0.4808,-0.482,-0.4837,-0.4835,-0.4846,-0.4858,-0.4861,-0.4908,-0.4886,-0.4914,-0.4964,-0.4977,-0.499,-0.5074,-0.5057,-0.5082,-0.513,-0.5163,-0.5173,-0.5182,-0.5213,-0.5225,-0.5089,-0.5089,-0.5089,0,-0.4796,-0.4844,-0.4833,-0.4871,-0.4886,-0.486,-0.4904,-0.4916,-0.4941,-0.4953,-0.4932,-0.4993,-0.5002,-0.5062,-0.5082,-0.5093,-0.5105,-0.5082,-0.5173,-0.5181,-0.5189,-0.5219,-0.5231,-0.5092,-0.5092,-0.5092,-0.5091,0,-0.4895,-0.4929,-0.4962,-0.4987,-0.5006,-0.5047,-0.5041,-0.5062,-0.5051,-0.5052,-0.5099,-0.5109,-0.5138,-0.515,-0.5141,-0.5208,-0.5197,-0.5174,-0.5138,-0.5205,-0.5233,-0.5244,-0.5097,-0.5096,-0.5095,-0.5094,0,0,-0.5008,-0.5024,-0.5037,-0.5048,-0.5064,-0.509,-0.5129,-0.5156,-0.5175,-0.5192,-0.5225,-0.5266,-0.5246,-0.5261,-0.5252,-0.528,-0.5347,-0.5254,-0.5254,-0.5273,-0.5423,-0.5442,-0.5456,-0.5335,-0.5337,-0.5338,-0.5423,0,-0.509,-0.516,-0.5149,-0.5216,-0.5247,-0.5221,-0.5255,-0.5269,-0.5269,-0.5296,-0.5296,-0.5326,-0.5295,-0.5304,-0.5331,-0.5334,-0.5378,-0.5327,-0.5367,-0.5369,-0.5367,-0.547,-0.549,-0.557,-0.5433,-0.5435,-0.5436,0,-0.5197,-0.5218,-0.5288,-0.5299,-0.5312,-0.5343,-0.5367,-0.5392,-0.5406,-0.5404,-0.542,-0.5406,-0.5445,-0.5405,-0.5459,-0.5425,-0.544,-0.5443,-0.5446,-0.5452,-0.5409,-0.5481,-0.5594,-0.5607,-0.5453,-0.5452,-0.5451,0,-0.5275,-0.5321,-0.5369,-0.5378,-0.5392,-0.5414,-0.5421,-0.5432,-0.5449,-0.547,-0.5481,-0.5505,-0.5519,-0.5538,-0.5531,-0.5502,-0.5586,-0.5546,-0.5587,-0.5588,-0.5609,-0.5608,-0.5729,-0.5614,-0.5614,-0.5614,-0.5613,0,-0.537,-0.5415,-0.5404,-0.5434,-0.5482,-0.5469,-0.5517,-0.552,-0.553,-0.556,-0.5538,-0.5566,-0.5553,-0.558,-0.5574,-0.562,-0.5626,-0.5626,-0.5625,-0.563,-0.563,-0.5642,-0.5638,-0.5617,-0.5616,-0.5616,-0.5615,0,-0.5467,-0.5462,-0.5512,-0.552,-0.5523,-0.5558,-0.5565,-0.5593,-0.559,-0.5628,-0.5636,-0.5633,-0.5664,-0.5657,-0.569,-0.5686,-0.5745,-0.5735,-0.5741,-0.5739,-0.5782,-0.5779,-0.5917,-0.5934,-0.5806,-0.5807,-0.5808,0,-0.553,-0.5563,-0.5574,-0.5593,-0.5601,-0.563,-0.5647,-0.5634,-0.5653,-0.5671,-0.5696,-0.5725,-0.5748,-0.5798,-0.5799,-0.5824,-0.5816,-0.5862,-0.582,-0.5824,-0.5819,-0.5819,-0.5823,-0.5872,-0.5873,-0.5875,-0.5876,0,-0.5642,-0.5638,-0.5663,-0.5687,-0.5708,-0.5726,-0.5743,-0.5759,-0.5747,-0.5769,-0.58,-0.5817,-0.5851,-0.588,-0.5903,-0.5909,-0.5892,-0.5888,-0.59,-0.5907,-0.591,-0.5911,-0.5767,-0.5886,-0.5885,-0.5884,-0.5884,-0.5883,-0.5726,-0.5754,-0.5767,-0.5795,-0.5806,-0.5821,-0.5848,-0.5848,-0.5874,-0.5901,-0.5891,-0.5927,-0.5939,-0.5968,-0.5977,-0.6005,-0.5987,-0.6003,-0.6008,-0.6013,-0.6019,-0.5903,-0.6008,-0.6008,-0.6008,-0.6008,-0.6007,0,-0.5839,-0.5845,-0.5871,-0.5895,-0.5917,-0.5896,-0.5913,-0.5933,-0.5965,-0.5978,-0.6,-0.6036,-0.6063,-0.6065,-0.6091,-0.6113,-0.6105,-0.612,-0.612,-0.6122,-0.6032,-0.6021,-0.6126,-0.6126,-0.6126,-0.6126,-0.6126,-0.6126,-0.5901,-0.5949,-0.5945,-0.5997,-0.6002,-0.6038,-0.6049,-0.6063,-0.6073,-0.6114,-0.6137,-0.6137,-0.6145,-0.6171,-0.6196,-0.6195,-0.6207,-0.6226,-0.6223,-0.614,-0.6128,-0.6117,-0.6106,-0.6228,-0.6228,-0.6311,-0.6311,-0.6312]}]]